Time,TemperatureF,DewpointF,PressureIn,WindDirection,WindDirectionDegrees,WindSpeedMPH,WindSpeedGustMPH,Humidity,HourlyPrecipIn,Conditions,Clouds,dailyrainin,SoftwareType,DateUTC
2013-03-20 00:02:00,22.0,11.0,30.09,West,274,13.0,24.0,63,0.00,,,0.00,,2013-03-20 05:02:00,
2013-03-20 00:12:00,22.0,11.0,30.09,West,280,12.0,22.0,63,0.00,,,0.00,,2013-03-20 05:12:00,
2013-03-20 00:22:00,22.0,11.0,30.09,West,280,12.0,22.0,63,0.00,,,0.00,,2013-03-20 05:22:00,
2013-03-20 00:32:00,22.0,11.0,30.08,West,275,9.0,20.0,63,0.00,,,0.00,,2013-03-20 05:32:00,
2013-03-20 00:42:00,22.0,11.0,30.08,West,275,9.0,20.0,63,0.00,,,0.00,,2013-03-20 05:42:00,
2013-03-20 00:52:00,21.0,10.0,30.09,West,275,8.0,21.0,63,0.00,,,0.00,,2013-03-20 05:52:00,
2013-03-20 01:02:00,21.0,11.0,30.09,West,279,9.0,18.0,64,0.00,,,0.00,,2013-03-20 06:02:00,
2013-03-20 01:12:00,21.0,11.0,30.09,West,279,9.0,18.0,64,0.00,,,0.00,,2013-03-20 06:12:00,
2013-03-20 01:22:00,20.0,10.0,30.09,West,278,12.0,18.0,64,0.00,,,0.00,,2013-03-20 06:22:00,
2013-03-20 01:32:00,20.0,10.0,30.09,West,281,10.0,20.0,64,0.00,,,0.00,,2013-03-20 06:32:00,
2013-03-20 01:42:00,20.0,10.0,30.09,West,281,10.0,20.0,64,0.00,,,0.00,,2013-03-20 06:42:00,
2013-03-20 01:52:00,19.0,9.0,30.09,West,275,7.0,18.0,64,0.00,,,0.00,,2013-03-20 06:52:00,
2013-03-20 02:02:00,19.0,9.0,30.09,West,280,7.0,16.0,65,0.00,,,0.00,,2013-03-20 07:02:00,
2013-03-20 02:12:00,19.0,9.0,30.09,West,280,7.0,16.0,65,0.00,,,0.00,,2013-03-20 07:12:00,
2013-03-20 02:22:00,18.0,8.0,30.10,WNW,282,11.0,18.0,63,0.00,,,0.00,,2013-03-20 07:22:00,
2013-03-20 02:32:00,18.0,8.0,30.10,WNW,282,11.0,18.0,63,0.00,,,0.00,,2013-03-20 07:32:00,
2013-03-20 02:42:00,18.0,8.0,30.10,WNW,282,11.0,18.0,63,0.00,,,0.00,,2013-03-20 07:42:00,
2013-03-20 02:52:00,17.0,8.0,30.10,West,280,6.0,15.0,66,0.00,,,0.00,,2013-03-20 07:52:00,
2013-03-20 03:02:00,17.0,8.0,30.10,West,273,7.0,14.0,67,0.00,,,0.00,,2013-03-20 08:02:00,
2013-03-20 03:12:00,17.0,8.0,30.10,West,273,7.0,14.0,67,0.00,,,0.00,,2013-03-20 08:12:00,
2013-03-20 03:22:00,16.0,7.0,30.10,West,274,8.0,20.0,68,0.00,,,0.00,,2013-03-20 08:22:00,
2013-03-20 03:32:00,15.0,7.0,30.09,West,276,7.0,14.0,69,0.00,,,0.00,,2013-03-20 08:32:00,
2013-03-20 03:42:00,15.0,7.0,30.09,West,276,7.0,14.0,69,0.00,,,0.00,,2013-03-20 08:42:00,
2013-03-20 03:52:00,15.0,7.0,30.09,WNW,282,11.0,20.0,69,0.00,,,0.00,,2013-03-20 08:52:00,
2013-03-20 04:02:00,15.0,7.0,30.10,WSW,256,9.0,16.0,70,0.00,,,0.00,,2013-03-20 09:02:00,
2013-03-20 04:12:00,15.0,7.0,30.10,WSW,256,9.0,16.0,70,0.00,,,0.00,,2013-03-20 09:12:00,
2013-03-20 04:22:00,14.0,6.0,30.09,WNW,282,8.0,18.0,70,0.00,,,0.00,,2013-03-20 09:22:00,
2013-03-20 04:33:00,14.0,6.0,30.10,West,276,6.0,13.0,70,0.00,,,0.00,,2013-03-20 09:33:00,
2013-03-20 04:43:00,14.0,6.0,30.10,West,276,6.0,13.0,70,0.00,,,0.00,,2013-03-20 09:43:00,
2013-03-20 04:52:00,14.0,6.0,30.10,West,274,6.0,15.0,71,0.00,,,0.00,,2013-03-20 09:52:00,
2013-03-20 05:03:00,13.0,5.0,30.10,West,271,8.0,20.0,71,0.00,,,0.00,,2013-03-20 10:03:00,
2013-03-20 05:12:00,13.0,5.0,30.10,West,271,8.0,20.0,71,0.00,,,0.00,,2013-03-20 10:12:00,
2013-03-20 05:23:00,13.0,5.0,30.10,West,271,8.0,20.0,71,0.00,,,0.00,,2013-03-20 10:23:00,
2013-03-20 05:32:00,13.0,5.0,30.11,WNW,283,7.0,14.0,71,0.00,,,0.00,,2013-03-20 10:32:00,
2013-03-20 05:42:00,13.0,5.0,30.11,WNW,283,7.0,14.0,71,0.00,,,0.00,,2013-03-20 10:42:00,
2013-03-20 05:53:00,12.0,4.0,30.11,West,274,8.0,14.0,71,0.00,,,0.00,,2013-03-20 10:53:00,
2013-03-20 06:03:00,12.0,4.0,30.11,WNW,286,9.0,14.0,71,0.00,,,0.00,,2013-03-20 11:03:00,
2013-03-20 06:12:00,12.0,4.0,30.11,WNW,286,9.0,14.0,71,0.00,,,0.00,,2013-03-20 11:12:00,
2013-03-20 06:22:00,12.0,4.0,30.11,West,281,10.0,15.0,71,0.00,,,0.00,,2013-03-20 11:22:00,
2013-03-20 06:32:00,12.0,5.0,30.11,West,272,11.0,18.0,72,0.00,,,0.00,,2013-03-20 11:32:00,
2013-03-20 06:42:00,12.0,5.0,30.11,West,272,11.0,18.0,72,0.00,,,0.00,,2013-03-20 11:42:00,
2013-03-20 06:52:00,11.0,4.0,30.12,WNW,286,10.0,20.0,72,0.00,,,0.00,,2013-03-20 11:52:00,
2013-03-20 07:02:00,11.0,4.0,30.12,West,276,9.0,15.0,72,0.00,,,0.00,,2013-03-20 12:02:00,
2013-03-20 07:12:00,11.0,4.0,30.12,West,276,9.0,15.0,72,0.00,,,0.00,,2013-03-20 12:12:00,
2013-03-20 07:22:00,11.0,4.0,30.12,West,279,9.0,16.0,73,0.00,,,0.00,,2013-03-20 12:22:00,
2013-03-20 07:32:00,11.0,4.0,30.13,West,281,8.0,16.0,72,0.00,,,0.00,,2013-03-20 12:32:00,
2013-03-20 07:42:00,11.0,4.0,30.13,West,281,8.0,16.0,72,0.00,,,0.00,,2013-03-20 12:42:00,
2013-03-20 07:52:00,11.0,4.0,30.14,West,271,9.0,16.0,72,0.00,,,0.00,,2013-03-20 12:52:00,
2013-03-20 08:03:00,11.0,3.0,30.14,West,271,9.0,18.0,71,0.00,,,0.00,,2013-03-20 13:03:00,
2013-03-20 08:12:00,11.0,3.0,30.14,West,271,9.0,18.0,71,0.00,,,0.00,,2013-03-20 13:12:00,
2013-03-20 08:22:00,11.0,3.0,30.14,West,277,11.0,17.0,70,0.00,,,0.00,,2013-03-20 13:22:00,
2013-03-20 08:32:00,11.0,3.0,30.14,West,277,11.0,18.0,68,0.00,,,0.00,,2013-03-20 13:32:00,
2013-03-20 08:42:00,11.0,3.0,30.14,West,277,11.0,18.0,68,0.00,,,0.00,,2013-03-20 13:42:00,
2013-03-20 09:03:00,12.0,3.0,30.14,West,279,9.0,21.0,67,0.00,,,0.00,,2013-03-20 14:03:00,
2013-03-20 09:12:00,12.0,3.0,30.14,West,279,9.0,21.0,67,0.00,,,0.00,,2013-03-20 14:12:00,
2013-03-20 09:23:00,12.0,3.0,30.14,West,277,11.0,18.0,65,0.00,,,0.00,,2013-03-20 14:23:00,
2013-03-20 09:33:00,12.0,3.0,30.14,WNW,286,9.0,20.0,65,0.00,,,0.00,,2013-03-20 14:33:00,
2013-03-20 09:42:00,12.0,3.0,30.14,WNW,286,9.0,20.0,65,0.00,,,0.00,,2013-03-20 14:42:00,
2013-03-20 09:52:00,12.0,3.0,30.14,WNW,286,9.0,20.0,65,0.00,,,0.00,,2013-03-20 14:52:00,
2013-03-20 10:02:00,13.0,3.0,30.14,West,277,10.0,18.0,65,0.00,,,0.00,,2013-03-20 15:02:00,
2013-03-20 10:12:00,13.0,3.0,30.13,WNW,286,12.0,22.0,64,0.00,,,0.00,,2013-03-20 15:12:00,
2013-03-20 10:22:00,13.0,3.0,30.13,WNW,286,12.0,22.0,64,0.00,,,0.00,,2013-03-20 15:22:00,
2013-03-20 10:33:00,13.0,3.0,30.13,West,265,9.0,22.0,65,0.00,,,0.00,,2013-03-20 15:33:00,
2013-03-20 10:43:00,13.0,3.0,30.13,West,265,9.0,22.0,65,0.00,,,0.00,,2013-03-20 15:43:00,
2013-03-20 10:52:00,14.0,4.0,30.12,West,280,13.0,23.0,64,0.00,,,0.00,,2013-03-20 15:52:00,
2013-03-20 11:03:00,15.0,5.0,30.13,West,275,11.0,20.0,63,0.00,,,0.00,,2013-03-20 16:03:00,
2013-03-20 11:12:00,15.0,5.0,30.13,West,275,11.0,20.0,63,0.00,,,0.00,,2013-03-20 16:12:00,
2013-03-20 11:23:00,15.0,5.0,30.13,West,278,11.0,22.0,65,0.00,,,0.00,,2013-03-20 16:23:00,
2013-03-20 11:33:00,15.0,5.0,30.13,West,276,13.0,20.0,65,0.00,,,0.00,,2013-03-20 16:33:00,
2013-03-20 11:42:00,15.0,5.0,30.13,West,276,13.0,20.0,65,0.00,,,0.00,,2013-03-20 16:42:00,
2013-03-20 11:52:00,15.0,5.0,30.13,West,273,14.0,21.0,64,0.00,,,0.00,,2013-03-20 16:52:00,
2013-03-20 12:03:00,16.0,6.0,30.13,West,278,13.0,22.0,65,0.00,,,0.00,,2013-03-20 17:03:00,
2013-03-20 12:12:00,16.0,6.0,30.13,West,278,13.0,22.0,65,0.00,,,0.00,,2013-03-20 17:12:00,
2013-03-20 12:22:00,16.0,7.0,30.12,West,281,13.0,26.0,66,0.00,,,0.00,,2013-03-20 17:22:00,
2013-03-20 12:32:00,16.0,7.0,30.12,WNW,284,14.0,22.0,66,0.00,,,0.00,,2013-03-20 17:32:00,
2013-03-20 12:42:00,16.0,7.0,30.12,WNW,284,14.0,22.0,66,0.00,,,0.00,,2013-03-20 17:42:00,
2013-03-20 12:52:00,16.0,7.0,30.12,WNW,284,14.0,22.0,66,0.00,,,0.00,,2013-03-20 17:52:00,
2013-03-20 13:02:00,17.0,7.0,30.11,West,281,14.0,22.0,65,0.00,,,0.00,,2013-03-20 18:02:00,
2013-03-20 13:12:00,17.0,7.0,30.11,West,281,14.0,22.0,65,0.00,,,0.00,,2013-03-20 18:12:00,
2013-03-20 13:22:00,17.0,7.0,30.11,WNW,283,13.0,22.0,65,0.00,,,0.00,,2013-03-20 18:22:00,
2013-03-20 13:33:00,18.0,9.0,30.10,WNW,286,11.0,23.0,67,0.00,,,0.00,,2013-03-20 18:33:00,
2013-03-20 13:42:00,18.0,9.0,30.10,WNW,286,11.0,23.0,67,0.00,,,0.00,,2013-03-20 18:42:00,
2013-03-20 13:52:00,18.0,9.0,30.10,WNW,286,11.0,23.0,67,0.00,,,0.00,,2013-03-20 18:52:00,
2013-03-20 14:02:00,18.0,8.0,30.10,West,277,13.0,21.0,65,0.00,,,0.00,,2013-03-20 19:02:00,
2013-03-20 14:12:00,18.0,8.0,30.10,West,277,13.0,21.0,65,0.00,,,0.00,,2013-03-20 19:12:00,
2013-03-20 14:22:00,18.0,8.0,30.10,West,277,13.0,21.0,65,0.00,,,0.00,,2013-03-20 19:22:00,
2013-03-20 14:32:00,19.0,9.0,30.09,West,275,9.0,20.0,64,0.00,,,0.00,,2013-03-20 19:32:00,
2013-03-20 14:42:00,19.0,9.0,30.09,West,275,9.0,20.0,64,0.00,,,0.00,,2013-03-20 19:42:00,
2013-03-20 14:53:00,19.0,9.0,30.08,West,279,11.0,23.0,63,0.00,,,0.00,,2013-03-20 19:53:00,
2013-03-20 15:02:00,19.0,9.0,30.08,WNW,282,13.0,21.0,63,0.00,,,0.00,,2013-03-20 20:02:00,
2013-03-20 15:13:00,19.0,9.0,30.08,WNW,282,13.0,21.0,63,0.00,,,0.00,,2013-03-20 20:13:00,
2013-03-20 15:22:00,20.0,10.0,30.07,West,270,13.0,21.0,64,0.00,,,0.00,,2013-03-20 20:22:00,
2013-03-20 15:32:00,20.0,10.0,30.07,West,281,14.0,20.0,64,0.00,,,0.00,,2013-03-20 20:32:00,
2013-03-20 15:42:00,20.0,10.0,30.07,West,281,14.0,20.0,64,0.00,,,0.00,,2013-03-20 20:42:00,
2013-03-20 15:52:00,20.0,10.0,30.07,West,281,14.0,20.0,64,0.00,,,0.00,,2013-03-20 20:52:00,
2013-03-20 16:02:00,20.0,9.0,30.06,WNW,286,12.0,23.0,63,0.00,,,0.00,,2013-03-20 21:02:00,
2013-03-20 16:12:00,20.0,9.0,30.06,WNW,286,12.0,23.0,63,0.00,,,0.00,,2013-03-20 21:12:00,
2013-03-20 16:22:00,20.0,11.0,30.06,West,264,11.0,20.0,67,0.00,,,0.00,,2013-03-20 21:22:00,
2013-03-20 16:33:00,20.0,11.0,30.06,West,264,11.0,20.0,67,0.00,,,0.00,,2013-03-20 21:33:00,
2013-03-20 16:42:00,20.0,11.0,30.06,West,264,11.0,20.0,67,0.00,,,0.00,,2013-03-20 21:42:00,
2013-03-20 16:52:00,20.0,11.0,30.06,West,264,11.0,20.0,67,0.00,,,0.00,,2013-03-20 21:52:00,
2013-03-20 17:03:00,21.0,11.0,30.06,West,272,13.0,20.0,65,0.00,,,0.00,,2013-03-20 22:03:00,
2013-03-20 17:12:00,21.0,11.0,30.06,West,272,13.0,20.0,65,0.00,,,0.00,,2013-03-20 22:12:00,
2013-03-20 17:23:00,21.0,11.0,30.06,West,278,12.0,21.0,64,0.00,,,0.00,,2013-03-20 22:23:00,
2013-03-20 17:33:00,20.0,10.0,30.06,West,274,11.0,20.0,65,0.00,,,0.00,,2013-03-20 22:33:00,
2013-03-20 17:42:00,20.0,10.0,30.06,West,274,11.0,20.0,65,0.00,,,0.00,,2013-03-20 22:42:00,
2013-03-20 17:52:00,21.0,11.0,30.06,West,275,10.0,20.0,65,0.00,,,0.00,,2013-03-20 22:52:00,
2013-03-20 18:02:00,21.0,10.0,30.06,West,281,13.0,22.0,61,0.00,,,0.00,,2013-03-20 23:02:00,
2013-03-20 18:12:00,21.0,10.0,30.06,West,281,13.0,22.0,61,0.00,,,0.00,,2013-03-20 23:12:00,
2013-03-20 18:22:00,21.0,10.0,30.07,West,279,12.0,21.0,61,0.00,,,0.00,,2013-03-20 23:22:00,
2013-03-20 18:32:00,21.0,10.0,30.07,WNW,286,13.0,20.0,61,0.00,,,0.00,,2013-03-20 23:32:00,
2013-03-20 18:42:00,21.0,10.0,30.07,WNW,286,13.0,20.0,61,0.00,,,0.00,,2013-03-20 23:42:00,
2013-03-20 18:52:00,21.0,10.0,30.07,West,281,12.0,20.0,61,0.00,,,0.00,,2013-03-20 23:52:00,
2013-03-20 19:02:00,20.0,9.0,30.08,WNW,283,7.0,14.0,63,0.00,,,0.00,,2013-03-21 00:02:00,
2013-03-20 19:12:00,20.0,9.0,30.08,WNW,283,7.0,14.0,63,0.00,,,0.00,,2013-03-21 00:12:00,
2013-03-20 19:23:00,20.0,9.0,30.08,WNW,284,12.0,20.0,63,0.00,,,0.00,,2013-03-21 00:23:00,
2013-03-20 19:32:00,20.0,10.0,30.07,West,274,6.0,14.0,65,0.00,,,0.00,,2013-03-21 00:32:00,
2013-03-20 19:42:00,20.0,10.0,30.07,West,274,6.0,14.0,65,0.00,,,0.00,,2013-03-21 00:42:00,
2013-03-20 19:52:00,20.0,10.0,30.07,West,274,6.0,14.0,65,0.00,,,0.00,,2013-03-21 00:52:00,
2013-03-20 20:02:00,20.0,10.0,30.07,West,274,6.0,14.0,65,0.00,,,0.00,,2013-03-21 01:02:00,
2013-03-20 20:12:00,20.0,10.0,30.07,West,274,6.0,14.0,65,0.00,,,0.00,,2013-03-21 01:12:00,
2013-03-20 20:33:00,19.0,12.0,30.08,West,275,6.0,15.0,73,0.00,,,0.00,,2013-03-21 01:33:00,
2013-03-20 20:42:00,19.0,12.0,30.08,West,275,6.0,15.0,73,0.00,,,0.00,,2013-03-21 01:42:00,
2013-03-20 20:53:00,19.0,12.0,30.08,West,275,6.0,15.0,73,0.00,,,0.00,,2013-03-21 01:53:00,
2013-03-20 21:02:00,19.0,12.0,30.08,West,271,6.0,12.0,73,0.00,,,0.00,,2013-03-21 02:02:00,
2013-03-20 21:12:00,19.0,12.0,30.08,West,271,6.0,12.0,73,0.00,,,0.00,,2013-03-21 02:12:00,
2013-03-20 21:22:00,19.0,11.0,30.08,WNW,294,4.0,12.0,71,0.00,,,0.00,,2013-03-21 02:22:00,
2013-03-20 21:32:00,19.0,11.0,30.09,West,269,3.0,12.0,69,0.00,,,0.00,,2013-03-21 02:32:00,
2013-03-20 21:42:00,19.0,11.0,30.09,West,269,3.0,12.0,69,0.00,,,0.00,,2013-03-21 02:42:00,
2013-03-20 21:51:00,19.0,11.0,30.09,West,269,3.0,12.0,69,0.00,,,0.00,,2013-03-21 02:51:00,
2013-03-20 22:02:00,19.0,11.0,30.09,WNW,295,2.0,8.0,70,0.00,,,0.00,,2013-03-21 03:02:00,
2013-03-20 22:12:00,19.0,11.0,30.09,WNW,295,2.0,8.0,70,0.00,,,0.00,,2013-03-21 03:12:00,
2013-03-20 22:22:00,18.0,10.0,30.09,WNW,296,3.0,12.0,70,0.00,,,0.00,,2013-03-21 03:22:00,
2013-03-20 22:33:00,18.0,10.0,30.09,West,278,3.0,8.0,71,0.00,,,0.00,,2013-03-21 03:33:00,
2013-03-20 22:43:00,18.0,10.0,30.09,West,278,3.0,8.0,71,0.00,,,0.00,,2013-03-21 03:43:00,
2013-03-20 22:53:00,17.0,10.0,30.09,WNW,283,4.0,8.0,72,0.00,,,0.00,,2013-03-21 03:53:00,
2013-03-20 23:03:00,17.0,10.0,30.10,NW,319,2.0,7.0,73,0.00,,,0.00,,2013-03-21 04:03:00,
2013-03-20 23:13:00,17.0,10.0,30.10,NW,319,2.0,7.0,73,0.00,,,0.00,,2013-03-21 04:13:00,
2013-03-20 23:23:00,17.0,10.0,30.10,WNW,296,1.0,5.0,74,0.00,,,0.00,,2013-03-21 04:23:00,
2013-03-20 23:33:00,16.0,9.0,30.10,WNW,293,3.0,6.0,75,0.00,,,0.00,,2013-03-21 04:33:00,
2013-03-20 23:43:00,16.0,9.0,30.10,WNW,293,3.0,6.0,75,0.00,,,0.00,,2013-03-21 04:43:00,
2013-03-20 23:52:00,16.0,10.0,30.10,West,271,2.0,8.0,76,0.00,,,0.00,,2013-03-21 04:52:00,